Time,TemperatureF,DewpointF,PressureIn,WindDirection,WindDirectionDegrees,WindSpeedMPH,WindSpeedGustMPH,Humidity,HourlyPrecipIn,Conditions,Clouds,dailyrainin,SolarRadiationWatts/m^2,SoftwareType,DateUTC
2013-05-14 00:02:00,65.3,48.7,29.90,ESE,122,1.0,1.0,55,0.00,,,0.00,0,Wunderground v.1.15,2013-05-14 07:02:00,
2013-05-14 00:08:00,65.0,48.9,29.90,ESE,119,1.0,1.0,56,0.00,,,0.00,0,Wunderground v.1.15,2013-05-14 07:08:00,
2013-05-14 00:13:00,64.9,48.8,29.90,ESE,119,0.0,0.0,56,0.00,,,0.00,0,Wunderground v.1.15,2013-05-14 07:13:00,
2013-05-14 00:19:00,64.6,49.0,29.90,SE,125,0.0,2.0,57,0.00,,,0.00,0,Wunderground v.1.15,2013-05-14 07:19:00,
2013-05-14 00:24:00,64.2,48.6,29.90,ESE,121,1.0,1.0,57,0.00,,,0.00,0,Wunderground v.1.15,2013-05-14 07:24:00,
2013-05-14 00:29:00,64.1,48.5,29.90,ESE,123,0.0,3.0,57,0.00,,,0.00,0,Wunderground v.1.15,2013-05-14 07:29:00,
2013-05-14 00:35:00,63.6,48.5,29.90,SE,130,1.0,2.0,58,0.00,,,0.00,0,Wunderground v.1.15,2013-05-14 07:35:00,
2013-05-14 00:40:00,63.3,48.7,29.90,SE,132,1.0,1.0,59,0.00,,,0.00,0,Wunderground v.1.15,2013-05-14 07:40:00,
2013-05-14 00:46:00,63.1,48.5,29.90,ESE,122,1.0,4.0,59,0.00,,,0.00,0,Wunderground v.1.15,2013-05-14 07:46:00,
2013-05-14 00:51:00,62.9,48.3,29.91,SE,128,1.0,2.0,59,0.00,,,0.00,0,Wunderground v.1.15,2013-05-14 07:51:00,
2013-05-14 00:57:00,62.6,48.5,29.90,ESE,122,2.0,3.0,60,0.00,,,0.00,0,Wunderground v.1.15,2013-05-14 07:57:00,
2013-05-14 01:02:00,62.4,48.3,29.90,ESE,123,2.0,2.0,60,0.00,,,0.00,0,Wunderground v.1.15,2013-05-14 08:02:00,
2013-05-14 01:07:00,62.3,48.2,29.90,SE,128,1.0,3.0,60,0.00,,,0.00,0,Wunderground v.1.15,2013-05-14 08:07:00,
2013-05-14 01:13:00,62.2,48.6,29.90,ESE,120,2.0,3.0,61,0.00,,,0.00,0,Wunderground v.1.15,2013-05-14 08:13:00,
2013-05-14 01:18:00,62.2,48.6,29.90,ESE,123,3.0,5.0,61,0.00,,,0.00,0,Wunderground v.1.15,2013-05-14 08:18:00,
2013-05-14 01:24:00,62.1,48.5,29.90,ESE,121,3.0,3.0,61,0.00,,,0.00,0,Wunderground v.1.15,2013-05-14 08:24:00,
2013-05-14 01:30:00,62.2,48.1,29.90,ESE,117,3.0,3.0,60,0.00,,,0.00,0,Wunderground v.1.15,2013-05-14 08:30:00,
2013-05-14 01:35:00,62.1,48.5,29.90,ESE,123,3.0,5.0,61,0.00,,,0.00,0,Wunderground v.1.15,2013-05-14 08:35:00,
2013-05-14 01:41:00,62.2,48.6,29.89,SE,135,4.0,4.0,61,0.00,,,0.00,0,Wunderground v.1.15,2013-05-14 08:41:00,
2013-05-14 01:46:00,62.2,48.6,29.89,ESE,120,4.0,6.0,61,0.00,,,0.00,0,Wunderground v.1.15,2013-05-14 08:46:00,
2013-05-14 01:52:00,62.3,48.7,29.89,ESE,109,4.0,4.0,61,0.00,,,0.00,0,Wunderground v.1.15,2013-05-14 08:52:00,
2013-05-14 01:57:00,62.3,48.7,29.89,ESE,108,4.0,4.0,61,0.00,,,0.00,0,Wunderground v.1.15,2013-05-14 08:57:00,
2013-05-14 02:02:00,62.3,48.7,29.89,ESE,115,3.0,4.0,61,0.00,,,0.00,0,Wunderground v.1.15,2013-05-14 09:02:00,
2013-05-14 02:08:00,62.3,48.7,29.89,SE,126,4.0,5.0,61,0.00,,,0.00,0,Wunderground v.1.15,2013-05-14 09:08:00,
2013-05-14 02:13:00,62.3,48.7,29.89,ESE,107,4.0,4.0,61,0.00,,,0.00,0,Wunderground v.1.15,2013-05-14 09:13:00,
2013-05-14 02:18:00,62.3,48.7,29.89,SE,126,3.0,4.0,61,0.00,,,0.00,0,Wunderground v.1.15,2013-05-14 09:18:00,
2013-05-14 02:24:00,62.1,48.5,29.89,ESE,107,3.0,4.0,61,0.00,,,0.00,0,Wunderground v.1.15,2013-05-14 09:24:00,
2013-05-14 02:29:00,62.0,48.4,29.89,ESE,119,3.0,4.0,61,0.00,,,0.00,0,Wunderground v.1.15,2013-05-14 09:29:00,
2013-05-14 02:35:00,61.8,48.2,29.89,SE,128,2.0,3.0,61,0.00,,,0.00,0,Wunderground v.1.15,2013-05-14 09:35:00,
2013-05-14 02:40:00,61.6,48.4,29.89,SE,124,2.0,3.0,62,0.00,,,0.00,0,Wunderground v.1.15,2013-05-14 09:40:00,
2013-05-14 02:45:00,61.3,48.2,29.89,SE,126,2.0,7.0,62,0.00,,,0.00,0,Wunderground v.1.15,2013-05-14 09:45:00,
2013-05-14 02:50:00,61.1,48.4,29.89,ESE,118,2.0,2.0,63,0.00,,,0.00,0,Wunderground v.1.15,2013-05-14 09:50:00,
2013-05-14 02:56:00,60.8,48.1,29.89,ESE,117,3.0,3.0,63,0.00,,,0.00,0,Wunderground v.1.15,2013-05-14 09:56:00,
2013-05-14 03:02:00,60.6,47.9,29.89,ESE,120,2.0,3.0,63,0.00,,,0.00,0,Wunderground v.1.15,2013-05-14 10:02:00,
2013-05-14 03:07:00,60.6,47.9,29.89,SE,124,1.0,3.0,63,0.00,,,0.00,0,Wunderground v.1.15,2013-05-14 10:07:00,
2013-05-14 03:13:00,60.5,47.8,29.90,SE,126,1.0,1.0,63,0.00,,,0.00,0,Wunderground v.1.15,2013-05-14 10:13:00,
2013-05-14 03:18:00,60.2,48.0,29.89,SE,124,1.0,1.0,64,0.00,,,0.00,0,Wunderground v.1.15,2013-05-14 10:18:00,
2013-05-14 03:23:00,59.7,47.5,29.90,ESE,123,1.0,2.0,64,0.00,,,0.00,0,Wunderground v.1.15,2013-05-14 10:23:00,
2013-05-14 03:29:00,59.2,47.4,29.90,ESE,122,1.0,3.0,65,0.00,,,0.00,0,Wunderground v.1.15,2013-05-14 10:29:00,
2013-05-14 03:34:00,59.0,47.2,29.90,SE,128,2.0,4.0,65,0.00,,,0.00,0,Wunderground v.1.15,2013-05-14 10:34:00,
2013-05-14 03:40:00,59.0,47.2,29.90,ESE,120,2.0,2.0,65,0.00,,,0.00,0,Wunderground v.1.15,2013-05-14 10:40:00,
2013-05-14 03:45:00,58.9,47.2,29.90,SE,124,2.0,4.0,65,0.00,,,0.00,0,Wunderground v.1.15,2013-05-14 10:45:00,
2013-05-14 03:50:00,58.4,47.1,29.90,ESE,123,2.0,3.0,66,0.00,,,0.00,0,Wunderground v.1.15,2013-05-14 10:50:00,
2013-05-14 03:56:00,58.1,47.2,29.90,SE,136,2.0,3.0,67,0.00,,,0.00,0,Wunderground v.1.15,2013-05-14 10:56:00,
2013-05-14 04:02:00,57.9,46.6,29.90,ESE,115,1.0,2.0,66,0.00,,,0.00,0,Wunderground v.1.15,2013-05-14 11:02:00,
2013-05-14 04:07:00,57.7,46.8,29.90,ESE,120,1.0,2.0,67,0.00,,,0.00,0,Wunderground v.1.15,2013-05-14 11:07:00,
2013-05-14 04:12:00,57.7,46.8,29.90,ESE,120,0.0,2.0,67,0.00,,,0.00,0,Wunderground v.1.15,2013-05-14 11:12:00,
2013-05-14 04:18:00,57.5,46.6,29.91,SE,124,0.0,2.0,67,0.00,,,0.00,0,Wunderground v.1.15,2013-05-14 11:18:00,
2013-05-14 04:23:00,57.1,46.2,29.91,SE,134,1.0,3.0,67,0.00,,,0.00,0,Wunderground v.1.15,2013-05-14 11:23:00,
2013-05-14 04:29:00,56.8,46.3,29.91,ESE,121,1.0,3.0,68,0.00,,,0.00,0,Wunderground v.1.15,2013-05-14 11:29:00,
2013-05-14 04:34:00,56.5,46.1,29.91,ESE,123,1.0,1.0,68,0.00,,,0.00,0,Wunderground v.1.15,2013-05-14 11:34:00,
2013-05-14 04:39:00,56.3,46.3,29.91,ESE,119,1.0,2.0,69,0.00,,,0.00,0,Wunderground v.1.15,2013-05-14 11:39:00,
2013-05-14 04:45:00,56.0,46.0,29.91,SE,127,1.0,4.0,69,0.00,,,0.00,0,Wunderground v.1.15,2013-05-14 11:45:00,
2013-05-14 04:50:00,55.9,46.6,29.91,ESE,123,2.0,2.0,71,0.00,,,0.00,0,Wunderground v.1.15,2013-05-14 11:50:00,
2013-05-14 04:56:00,55.9,46.6,29.91,ESE,121,2.0,2.0,71,0.00,,,0.00,0,Wunderground v.1.15,2013-05-14 11:56:00,
2013-05-14 05:01:00,55.8,46.9,29.91,SE,126,1.0,2.0,72,0.00,,,0.00,0,Wunderground v.1.15,2013-05-14 12:01:00,
2013-05-14 05:06:00,55.6,46.7,29.91,ESE,119,1.0,2.0,72,0.00,,,0.00,0,Wunderground v.1.15,2013-05-14 12:06:00,
2013-05-14 05:12:00,55.3,46.8,29.91,SE,124,1.0,2.0,73,0.00,,,0.00,0,Wunderground v.1.15,2013-05-14 12:12:00,
2013-05-14 05:17:00,55.4,47.2,29.91,SE,128,1.0,2.0,74,0.00,,,0.00,0,Wunderground v.1.15,2013-05-14 12:17:00,
2013-05-14 05:22:00,55.2,47.1,29.91,SE,129,0.0,0.0,74,0.00,,,0.00,0,Wunderground v.1.15,2013-05-14 12:22:00,
2013-05-14 05:28:00,55.2,47.1,29.91,ESE,122,0.0,2.0,74,0.00,,,0.00,0,Wunderground v.1.15,2013-05-14 12:28:00,
2013-05-14 05:34:00,55.0,47.2,29.91,SE,124,1.0,2.0,75,0.00,,,0.00,0,Wunderground v.1.15,2013-05-14 12:34:00,
2013-05-14 05:39:00,54.7,46.9,29.92,ESE,122,1.0,2.0,75,0.00,,,0.00,0,Wunderground v.1.15,2013-05-14 12:39:00,
2013-05-14 05:44:00,54.6,47.2,29.92,ESE,122,1.0,4.0,76,0.00,,,0.00,0,Wunderground v.1.15,2013-05-14 12:44:00,
2013-05-14 05:50:00,54.5,47.1,29.92,SE,127,1.0,2.0,76,0.00,,,0.00,0,Wunderground v.1.15,2013-05-14 12:50:00,
2013-05-14 05:56:00,54.4,47.3,29.92,SE,128,2.0,3.0,77,0.00,,,0.00,5,Wunderground v.1.15,2013-05-14 12:56:00,
2013-05-14 06:02:00,54.5,47.4,29.92,ESE,109,2.0,2.0,77,0.00,,,0.00,9,Wunderground v.1.15,2013-05-14 13:02:00,
2013-05-14 06:07:00,54.6,47.5,29.92,ESE,123,2.0,2.0,77,0.00,,,0.00,12,Wunderground v.1.15,2013-05-14 13:07:00,
2013-05-14 06:12:00,54.8,47.7,29.93,SE,125,1.0,2.0,77,0.00,,,0.00,16,Wunderground v.1.15,2013-05-14 13:12:00,
2013-05-14 06:18:00,54.9,47.8,29.93,SE,130,1.0,2.0,77,0.00,,,0.00,18,Wunderground v.1.15,2013-05-14 13:18:00,
2013-05-14 06:23:00,55.0,48.3,29.93,SE,140,1.0,4.0,78,0.00,,,0.00,21,Wunderground v.1.15,2013-05-14 13:23:00,
2013-05-14 06:29:00,55.3,48.6,29.93,ESE,119,1.0,4.0,78,0.00,,,0.00,62,Wunderground v.1.15,2013-05-14 13:29:00,
2013-05-14 06:34:00,55.6,48.5,29.93,SE,130,1.0,2.0,77,0.00,,,0.00,77,Wunderground v.1.15,2013-05-14 13:34:00,
2013-05-14 06:40:00,55.9,48.8,29.93,ESE,117,1.0,1.0,77,0.00,,,0.00,98,Wunderground v.1.15,2013-05-14 13:40:00,
2013-05-14 06:45:00,56.3,49.2,29.94,ESE,121,1.0,3.0,77,0.00,,,0.00,118,Wunderground v.1.15,2013-05-14 13:45:00,
2013-05-14 06:50:00,56.8,49.3,29.93,SE,126,1.0,2.0,76,0.00,,,0.00,137,Wunderground v.1.15,2013-05-14 13:50:00,
2013-05-14 06:56:00,57.5,50.0,29.94,SE,144,1.0,2.0,76,0.00,,,0.00,163,Wunderground v.1.15,2013-05-14 13:56:00,
2013-05-14 07:01:00,58.2,50.3,29.94,ESE,118,1.0,1.0,75,0.00,,,0.00,183,Wunderground v.1.15,2013-05-14 14:01:00,
2013-05-14 07:07:00,59.4,51.1,29.94,ESE,118,0.0,1.0,74,0.00,,,0.00,202,Wunderground v.1.15,2013-05-14 14:07:00,
2013-05-14 07:12:00,60.2,51.5,29.94,East,87,0.0,1.0,73,0.00,,,0.00,216,Wunderground v.1.15,2013-05-14 14:12:00,
2013-05-14 07:18:00,60.9,52.2,29.94,ENE,71,0.0,1.0,73,0.00,,,0.00,244,Wunderground v.1.15,2013-05-14 14:18:00,
2013-05-14 07:23:00,61.8,52.7,29.94,ENE,71,0.0,0.0,72,0.00,,,0.00,258,Wunderground v.1.15,2013-05-14 14:23:00,
2013-05-14 07:29:00,62.6,54.2,29.95,ENE,72,0.0,0.0,74,0.00,,,0.00,214,Wunderground v.1.15,2013-05-14 14:29:00,
2013-05-14 07:34:00,63.0,54.6,29.95,North,5,0.0,1.0,74,0.00,,,0.00,287,Wunderground v.1.15,2013-05-14 14:34:00,
2013-05-14 07:39:00,63.4,55.0,29.95,NW,317,0.0,1.0,74,0.00,,,0.00,294,Wunderground v.1.15,2013-05-14 14:39:00,
2013-05-14 07:45:00,63.9,55.4,29.95,West,269,1.0,3.0,74,0.00,,,0.00,251,Wunderground v.1.15,2013-05-14 14:45:00,
2013-05-14 07:50:00,64.4,55.9,29.95,West,271,1.0,1.0,74,0.00,,,0.00,281,Wunderground v.1.15,2013-05-14 14:50:00,
2013-05-14 07:56:00,64.5,56.0,29.96,NW,323,1.0,2.0,74,0.00,,,0.00,304,Wunderground v.1.15,2013-05-14 14:56:00,
2013-05-14 08:01:00,64.7,56.2,29.96,NW,312,2.0,3.0,74,0.00,,,0.00,352,Wunderground v.1.15,2013-05-14 15:01:00,
2013-05-14 08:06:00,64.9,56.4,29.96,North,5,2.0,3.0,74,0.00,,,0.00,396,Wunderground v.1.15,2013-05-14 15:06:00,
2013-05-14 08:12:00,65.6,56.7,29.96,NE,54,1.0,2.0,73,0.00,,,0.00,429,Wunderground v.1.15,2013-05-14 15:12:00,
2013-05-14 08:17:00,66.3,56.6,29.96,NW,306,1.0,3.0,71,0.00,,,0.00,450,Wunderground v.1.15,2013-05-14 15:17:00,
2013-05-14 08:22:00,66.3,56.6,29.96,NNW,332,2.0,3.0,71,0.00,,,0.00,466,Wunderground v.1.15,2013-05-14 15:22:00,
2013-05-14 08:28:00,66.6,56.9,29.96,NNE,31,2.0,3.0,71,0.00,,,0.00,459,Wunderground v.1.15,2013-05-14 15:28:00,
2013-05-14 08:33:00,67.0,56.5,29.96,WNW,291,1.0,2.0,69,0.00,,,0.00,413,Wunderground v.1.15,2013-05-14 15:33:00,
2013-05-14 08:39:00,67.1,56.6,29.96,North,355,1.0,3.0,69,0.00,,,0.00,489,Wunderground v.1.15,2013-05-14 15:39:00,
2013-05-14 08:44:00,67.9,56.9,29.96,SSW,201,2.0,4.0,68,0.00,,,0.00,512,Wunderground v.1.15,2013-05-14 15:44:00,
2013-05-14 08:50:00,68.3,56.9,29.96,SW,221,3.0,3.0,67,0.00,,,0.00,452,Wunderground v.1.15,2013-05-14 15:50:00,
2013-05-14 08:56:00,68.7,56.5,29.95,SSW,194,3.0,5.0,65,0.00,,,0.00,443,Wunderground v.1.15,2013-05-14 15:56:00,
2013-05-14 09:02:00,69.0,56.7,29.95,WSW,252,3.0,4.0,65,0.00,,,0.00,436,Wunderground v.1.15,2013-05-14 16:02:00,
2013-05-14 09:07:00,69.0,56.3,29.95,West,267,3.0,4.0,64,0.00,,,0.00,415,Wunderground v.1.15,2013-05-14 16:07:00,
2013-05-14 09:12:00,69.5,56.3,29.95,South,176,2.0,3.0,63,0.00,,,0.00,485,Wunderground v.1.15,2013-05-14 16:12:00,
2013-05-14 09:18:00,70.1,56.5,29.95,West,259,1.0,3.0,62,0.00,,,0.00,533,Wunderground v.1.15,2013-05-14 16:18:00,
2013-05-14 09:23:00,70.2,57.0,29.95,SSW,212,2.0,2.0,63,0.00,,,0.00,517,Wunderground v.1.15,2013-05-14 16:23:00,
2013-05-14 09:29:00,70.0,56.8,29.95,West,275,2.0,3.0,63,0.00,,,0.00,587,Wunderground v.1.15,2013-05-14 16:29:00,
2013-05-14 09:34:00,70.5,57.3,29.95,SE,135,2.0,3.0,63,0.00,,,0.00,547,Wunderground v.1.15,2013-05-14 16:34:00,
2013-05-14 09:40:00,71.0,57.8,29.95,SW,219,2.0,2.0,63,0.00,,,0.00,613,Wunderground v.1.15,2013-05-14 16:40:00,
2013-05-14 09:45:00,71.5,57.8,29.95,SSW,205,2.0,7.0,62,0.00,,,0.00,698,Wunderground v.1.15,2013-05-14 16:45:00,
2013-05-14 09:50:00,71.5,57.3,29.95,South,180,3.0,3.0,61,0.00,,,0.00,729,Wunderground v.1.15,2013-05-14 16:50:00,
2013-05-14 09:56:00,71.7,57.1,29.95,WNW,301,3.0,5.0,60,0.00,,,0.00,738,Wunderground v.1.15,2013-05-14 16:56:00,
2013-05-14 10:01:00,72.0,57.4,29.95,WSW,247,3.0,6.0,60,0.00,,,0.00,707,Wunderground v.1.15,2013-05-14 17:01:00,
2013-05-14 10:07:00,72.9,57.7,29.95,South,174,4.0,7.0,59,0.00,,,0.00,726,Wunderground v.1.15,2013-05-14 17:07:00,
2013-05-14 10:12:00,73.1,57.4,29.95,SSE,168,4.0,4.0,58,0.00,,,0.00,795,Wunderground v.1.15,2013-05-14 17:12:00,
2013-05-14 10:18:00,73.2,58.0,29.95,WSW,257,4.0,6.0,59,0.00,,,0.00,802,Wunderground v.1.15,2013-05-14 17:18:00,
2013-05-14 10:23:00,74.0,57.8,29.96,South,182,4.0,6.0,57,0.00,,,0.00,824,Wunderground v.1.15,2013-05-14 17:23:00,
2013-05-14 10:28:00,74.1,57.4,29.96,SSW,192,4.0,6.0,56,0.00,,,0.00,740,Wunderground v.1.15,2013-05-14 17:28:00,
2013-05-14 10:34:00,74.6,57.9,29.96,SSW,209,4.0,5.0,56,0.00,,,0.00,830,Wunderground v.1.15,2013-05-14 17:34:00,
2013-05-14 10:39:00,74.8,58.1,29.96,WSW,241,3.0,5.0,56,0.00,,,0.00,819,Wunderground v.1.15,2013-05-14 17:39:00,
2013-05-14 10:45:00,75.7,56.8,29.96,SW,224,3.0,9.0,52,0.00,,,0.00,851,Wunderground v.1.15,2013-05-14 17:45:00,
2013-05-14 10:50:00,75.8,57.4,29.95,SE,136,4.0,4.0,53,0.00,,,0.00,856,Wunderground v.1.15,2013-05-14 17:50:00,
2013-05-14 10:56:00,76.1,58.2,29.95,West,280,3.0,6.0,54,0.00,,,0.00,863,Wunderground v.1.15,2013-05-14 17:56:00,
2013-05-14 11:01:00,76.4,57.5,29.95,SW,217,4.0,4.0,52,0.00,,,0.00,874,Wunderground v.1.15,2013-05-14 18:01:00,
2013-05-14 11:07:00,77.3,56.6,29.96,SW,214,4.0,5.0,49,0.00,,,0.00,884,Wunderground v.1.15,2013-05-14 18:07:00,
2013-05-14 11:12:00,76.9,56.8,29.96,NW,315,4.0,4.0,50,0.00,,,0.00,895,Wunderground v.1.15,2013-05-14 18:12:00,
2013-05-14 11:18:00,76.9,56.8,29.96,South,186,5.0,8.0,50,0.00,,,0.00,900,Wunderground v.1.15,2013-05-14 18:18:00,
2013-05-14 11:23:00,76.9,55.1,29.96,SW,232,5.0,9.0,47,0.00,,,0.00,909,Wunderground v.1.15,2013-05-14 18:23:00,
2013-05-14 11:28:00,77.4,56.2,29.96,WSW,240,5.0,9.0,48,0.00,,,0.00,911,Wunderground v.1.15,2013-05-14 18:28:00,
2013-05-14 11:34:00,77.9,54.2,29.96,SSW,205,5.0,8.0,44,0.00,,,0.00,919,Wunderground v.1.15,2013-05-14 18:34:00,
2013-05-14 11:39:00,77.7,55.9,29.96,NW,312,4.0,8.0,47,0.00,,,0.00,928,Wunderground v.1.15,2013-05-14 18:39:00,
2013-05-14 11:45:00,77.7,55.3,29.96,SSW,209,4.0,8.0,46,0.00,,,0.00,940,Wunderground v.1.15,2013-05-14 18:45:00,
2013-05-14 11:50:00,78.4,55.3,29.96,SSW,197,4.0,5.0,45,0.00,,,0.00,947,Wunderground v.1.15,2013-05-14 18:50:00,
2013-05-14 11:56:00,79.1,54.7,29.96,SW,230,4.0,6.0,43,0.00,,,0.00,953,Wunderground v.1.15,2013-05-14 18:56:00,
2013-05-14 12:01:00,78.7,54.3,29.95,SW,216,5.0,7.0,43,0.00,,,0.00,954,Wunderground v.1.15,2013-05-14 19:01:00,
2013-05-14 12:07:00,79.2,54.8,29.95,WSW,252,5.0,7.0,43,0.00,,,0.00,958,Wunderground v.1.15,2013-05-14 19:07:00,
2013-05-14 12:12:00,78.7,53.7,29.95,West,261,4.0,5.0,42,0.00,,,0.00,962,Wunderground v.1.15,2013-05-14 19:12:00,
2013-05-14 12:17:00,79.5,54.4,29.95,SW,229,4.0,6.0,42,0.00,,,0.00,974,Wunderground v.1.15,2013-05-14 19:17:00,
2013-05-14 12:23:00,79.9,54.8,29.95,SSW,207,5.0,7.0,42,0.00,,,0.00,977,Wunderground v.1.15,2013-05-14 19:23:00,
2013-05-14 12:28:00,79.8,54.0,29.95,SSE,161,5.0,7.0,41,0.00,,,0.00,979,Wunderground v.1.15,2013-05-14 19:28:00,
2013-05-14 12:34:00,80.2,54.4,29.94,SW,226,5.0,5.0,41,0.00,,,0.00,970,Wunderground v.1.15,2013-05-14 19:34:00,
2013-05-14 12:39:00,80.6,54.0,29.94,SSE,163,5.0,6.0,40,0.00,,,0.00,976,Wunderground v.1.15,2013-05-14 19:39:00,
2013-05-14 12:44:00,80.3,53.1,29.94,SSW,206,4.0,7.0,39,0.00,,,0.00,977,Wunderground v.1.15,2013-05-14 19:44:00,
2013-05-14 12:50:00,81.1,53.1,29.94,West,262,4.0,4.0,38,0.00,,,0.00,977,Wunderground v.1.15,2013-05-14 19:50:00,
2013-05-14 12:57:00,80.8,54.2,29.94,SW,229,5.0,10.0,40,0.00,,,0.00,970,Wunderground v.1.15,2013-05-14 19:57:00,
2013-05-14 13:03:00,81.1,53.8,29.94,West,259,5.0,7.0,39,0.00,,,0.00,976,Wunderground v.1.15,2013-05-14 20:03:00,
2013-05-14 13:08:00,81.4,54.1,29.94,West,263,5.0,7.0,39,0.00,,,0.00,965,Wunderground v.1.15,2013-05-14 20:08:00,
2013-05-14 13:13:00,81.1,52.4,29.94,SSE,159,6.0,7.0,37,0.00,,,0.00,967,Wunderground v.1.15,2013-05-14 20:13:00,
2013-05-14 13:19:00,80.4,52.5,29.93,SW,236,5.0,10.0,38,0.00,,,0.00,962,Wunderground v.1.15,2013-05-14 20:19:00,
2013-05-14 13:24:00,80.5,51.1,29.93,NW,304,4.0,9.0,36,0.00,,,0.00,953,Wunderground v.1.15,2013-05-14 20:24:00,
2013-05-14 13:30:00,81.2,50.2,29.93,WNW,286,5.0,5.0,34,0.00,,,0.00,953,Wunderground v.1.15,2013-05-14 20:30:00,
2013-05-14 13:35:00,81.0,50.8,29.93,SW,220,5.0,12.0,35,0.00,,,0.00,954,Wunderground v.1.15,2013-05-14 20:35:00,
2013-05-14 13:41:00,81.2,50.9,29.93,SW,227,5.0,7.0,35,0.00,,,0.00,946,Wunderground v.1.15,2013-05-14 20:41:00,
2013-05-14 13:46:00,81.9,53.1,29.93,SW,220,5.0,11.0,37,0.00,,,0.00,946,Wunderground v.1.15,2013-05-14 20:46:00,
2013-05-14 13:51:00,81.2,50.2,29.93,NW,324,5.0,5.0,34,0.00,,,0.00,935,Wunderground v.1.15,2013-05-14 20:51:00,
2013-05-14 13:57:00,81.7,52.1,29.93,WSW,252,4.0,5.0,36,0.00,,,0.00,930,Wunderground v.1.15,2013-05-14 20:57:00,
2013-05-14 14:02:00,82.2,50.2,29.93,SW,221,4.0,8.0,33,0.00,,,0.00,925,Wunderground v.1.15,2013-05-14 21:02:00,
2013-05-14 14:08:00,81.8,51.5,29.92,WSW,243,5.0,14.0,35,0.00,,,0.00,914,Wunderground v.1.15,2013-05-14 21:08:00,
2013-05-14 14:13:00,82.8,51.6,29.92,NW,304,5.0,6.0,34,0.00,,,0.00,900,Wunderground v.1.15,2013-05-14 21:13:00,
2013-05-14 14:18:00,83.0,48.4,29.92,SW,216,6.0,10.0,30,0.00,,,0.00,895,Wunderground v.1.15,2013-05-14 21:18:00,
2013-05-14 14:24:00,82.5,50.5,29.92,SW,232,6.0,7.0,33,0.00,,,0.00,891,Wunderground v.1.15,2013-05-14 21:24:00,
2013-05-14 14:29:00,82.5,49.7,29.92,SW,225,6.0,10.0,32,0.00,,,0.00,881,Wunderground v.1.15,2013-05-14 21:29:00,
2013-05-14 14:35:00,83.1,49.3,29.92,SW,234,6.0,8.0,31,0.00,,,0.00,868,Wunderground v.1.15,2013-05-14 21:35:00,
2013-05-14 14:40:00,82.9,51.6,29.92,SW,215,5.0,12.0,34,0.00,,,0.00,853,Wunderground v.1.15,2013-05-14 21:40:00,
2013-05-14 14:45:00,82.4,52.8,29.92,SE,127,6.0,12.0,36,0.00,,,0.00,846,Wunderground v.1.15,2013-05-14 21:45:00,
2013-05-14 14:50:00,81.8,53.0,29.92,SSE,167,7.0,7.0,37,0.00,,,0.00,838,Wunderground v.1.15,2013-05-14 21:50:00,
2013-05-14 14:56:00,81.5,50.4,29.92,WSW,249,7.0,11.0,34,0.00,,,0.00,824,Wunderground v.1.15,2013-05-14 21:56:00,
2013-05-14 15:02:00,81.4,47.9,29.92,SSW,192,6.0,8.0,31,0.00,,,0.00,819,Wunderground v.1.15,2013-05-14 22:02:00,
2013-05-14 15:07:00,81.6,48.0,29.92,SSW,192,6.0,12.0,31,0.00,,,0.00,812,Wunderground v.1.15,2013-05-14 22:07:00,
2013-05-14 15:12:00,81.2,47.7,29.91,West,281,6.0,9.0,31,0.00,,,0.00,798,Wunderground v.1.15,2013-05-14 22:12:00,
2013-05-14 15:18:00,81.7,49.8,29.91,SW,216,6.0,10.0,33,0.00,,,0.00,780,Wunderground v.1.15,2013-05-14 22:18:00,
2013-05-14 15:23:00,81.0,50.0,29.91,SW,220,6.0,11.0,34,0.00,,,0.00,768,Wunderground v.1.15,2013-05-14 22:23:00,
2013-05-14 15:29:00,80.6,51.2,29.91,South,175,6.0,11.0,36,0.00,,,0.00,749,Wunderground v.1.15,2013-05-14 22:29:00,
2013-05-14 15:34:00,80.8,52.1,29.91,WNW,295,6.0,9.0,37,0.00,,,0.00,733,Wunderground v.1.15,2013-05-14 22:34:00,
2013-05-14 15:40:00,80.6,52.6,29.91,West,266,6.0,7.0,38,0.00,,,0.00,717,Wunderground v.1.15,2013-05-14 22:40:00,
2013-05-14 15:45:00,80.8,53.5,29.91,South,187,5.0,13.0,39,0.00,,,0.00,705,Wunderground v.1.15,2013-05-14 22:45:00,
2013-05-14 15:50:00,80.5,54.0,29.91,WSW,244,6.0,9.0,40,0.00,,,0.00,684,Wunderground v.1.15,2013-05-14 22:50:00,
2013-05-14 15:56:00,80.4,53.9,29.91,WSW,246,7.0,11.0,40,0.00,,,0.00,671,Wunderground v.1.15,2013-05-14 22:56:00,
2013-05-14 16:01:00,80.4,53.9,29.91,SSW,202,6.0,10.0,40,0.00,,,0.00,659,Wunderground v.1.15,2013-05-14 23:01:00,
2013-05-14 16:06:00,80.3,53.8,29.91,SSW,213,6.0,10.0,40,0.00,,,0.00,647,Wunderground v.1.15,2013-05-14 23:06:00,
2013-05-14 16:12:00,80.9,53.6,29.90,WSW,257,5.0,7.0,39,0.00,,,0.00,624,Wunderground v.1.15,2013-05-14 23:12:00,
2013-05-14 16:17:00,81.0,53.7,29.90,SSW,205,6.0,10.0,39,0.00,,,0.00,605,Wunderground v.1.15,2013-05-14 23:17:00,
2013-05-14 16:22:00,80.8,53.5,29.90,SSW,204,7.0,9.0,39,0.00,,,0.00,591,Wunderground v.1.15,2013-05-14 23:22:00,
2013-05-14 16:28:00,80.6,53.4,29.90,SSW,198,6.0,9.0,39,0.00,,,0.00,573,Wunderground v.1.15,2013-05-14 23:28:00,
2013-05-14 16:33:00,80.4,53.2,29.90,SW,229,6.0,7.0,39,0.00,,,0.00,555,Wunderground v.1.15,2013-05-14 23:33:00,
2013-05-14 16:39:00,80.6,53.4,29.90,WSW,242,5.0,8.0,39,0.00,,,0.00,536,Wunderground v.1.15,2013-05-14 23:39:00,
2013-05-14 16:44:00,80.7,54.1,29.90,SW,223,5.0,13.0,40,0.00,,,0.00,522,Wunderground v.1.15,2013-05-14 23:44:00,
2013-05-14 16:50:00,80.7,54.1,29.90,SW,230,6.0,10.0,40,0.00,,,0.00,501,Wunderground v.1.15,2013-05-14 23:50:00,
2013-05-14 16:56:00,81.0,53.0,29.90,SW,219,6.0,10.0,38,0.00,,,0.00,476,Wunderground v.1.15,2013-05-14 23:56:00,
2013-05-14 17:02:00,80.3,53.8,29.90,WNW,295,6.0,7.0,40,0.00,,,0.00,461,Wunderground v.1.15,2013-05-15 00:02:00,
2013-05-14 17:07:00,80.3,53.8,29.90,West,263,5.0,8.0,40,0.00,,,0.00,445,Wunderground v.1.15,2013-05-15 00:07:00,
2013-05-14 17:12:00,79.9,54.1,29.90,SSW,199,6.0,11.0,41,0.00,,,0.00,427,Wunderground v.1.15,2013-05-15 00:12:00,
2013-05-14 17:18:00,79.4,54.3,29.90,SW,217,7.0,11.0,42,0.00,,,0.00,406,Wunderground v.1.15,2013-05-15 00:18:00,
2013-05-14 17:23:00,78.9,54.5,29.91,SSE,163,7.0,8.0,43,0.00,,,0.00,390,Wunderground v.1.15,2013-05-15 00:23:00,
2013-05-14 17:28:00,78.1,54.4,29.90,SSW,200,7.0,8.0,44,0.00,,,0.00,373,Wunderground v.1.15,2013-05-15 00:28:00,
2013-05-14 17:33:00,77.7,54.7,29.91,SSW,209,7.0,8.0,45,0.00,,,0.00,359,Wunderground v.1.15,2013-05-15 00:33:00,
2013-05-14 17:39:00,77.2,54.8,29.91,SSW,200,6.0,11.0,46,0.00,,,0.00,341,Wunderground v.1.15,2013-05-15 00:39:00,
2013-05-14 17:44:00,77.1,54.7,29.91,South,190,7.0,15.0,46,0.00,,,0.00,323,Wunderground v.1.15,2013-05-15 00:44:00,
2013-05-14 17:50:00,77.3,51.8,29.91,SW,229,6.0,7.0,41,0.00,,,0.00,304,Wunderground v.1.15,2013-05-15 00:50:00,
2013-05-14 17:56:00,76.4,51.6,29.91,WNW,288,6.0,9.0,42,0.00,,,0.00,283,Wunderground v.1.15,2013-05-15 00:56:00,
2013-05-14 18:01:00,76.3,51.5,29.91,WNW,287,5.0,6.0,42,0.00,,,0.00,265,Wunderground v.1.15,2013-05-15 01:01:00,
2013-05-14 18:07:00,76.1,51.3,29.91,WNW,286,5.0,6.0,42,0.00,,,0.00,248,Wunderground v.1.15,2013-05-15 01:07:00,
2013-05-14 18:12:00,75.9,51.8,29.91,WSW,239,5.0,7.0,43,0.00,,,0.00,229,Wunderground v.1.15,2013-05-15 01:12:00,
2013-05-14 18:18:00,76.3,50.9,29.92,WSW,254,6.0,9.0,41,0.00,,,0.00,206,Wunderground v.1.15,2013-05-15 01:18:00,
2013-05-14 18:23:00,75.6,50.2,29.92,WSW,247,5.0,9.0,41,0.00,,,0.00,186,Wunderground v.1.15,2013-05-15 01:23:00,
2013-05-14 18:29:00,75.1,49.8,29.92,WNW,293,5.0,9.0,41,0.00,,,0.00,165,Wunderground v.1.15,2013-05-15 01:29:00,
2013-05-14 18:34:00,74.7,49.4,29.92,WNW,294,4.0,7.0,41,0.00,,,0.00,146,Wunderground v.1.15,2013-05-15 01:34:00,
2013-05-14 18:39:00,75.1,49.8,29.92,South,186,3.0,7.0,41,0.00,,,0.00,127,Wunderground v.1.15,2013-05-15 01:39:00,
2013-05-14 18:45:00,75.0,49.7,29.92,SW,214,3.0,11.0,41,0.00,,,0.00,104,Wunderground v.1.15,2013-05-15 01:45:00,
2013-05-14 18:50:00,74.5,49.2,29.92,South,181,3.0,3.0,41,0.00,,,0.00,88,Wunderground v.1.15,2013-05-15 01:50:00,
2013-05-14 18:56:00,73.9,48.7,29.92,SW,221,5.0,8.0,41,0.00,,,0.00,70,Wunderground v.1.15,2013-05-15 01:56:00,
2013-05-14 19:01:00,73.4,48.9,29.92,SW,223,5.0,7.0,42,0.00,,,0.00,56,Wunderground v.1.15,2013-05-15 02:01:00,
2013-05-14 19:06:00,73.0,48.5,29.92,SSW,194,4.0,7.0,42,0.00,,,0.00,44,Wunderground v.1.15,2013-05-15 02:06:00,
2013-05-14 19:12:00,72.4,48.6,29.92,WSW,251,4.0,6.0,43,0.00,,,0.00,25,Wunderground v.1.15,2013-05-15 02:12:00,
2013-05-14 19:17:00,72.1,48.4,29.93,West,263,4.0,7.0,43,0.00,,,0.00,21,Wunderground v.1.15,2013-05-15 02:17:00,
2013-05-14 19:22:00,71.7,48.6,29.93,SSW,207,4.0,6.0,44,0.00,,,0.00,18,Wunderground v.1.15,2013-05-15 02:22:00,
2013-05-14 19:28:00,71.3,48.9,29.93,WSW,256,4.0,6.0,45,0.00,,,0.00,14,Wunderground v.1.15,2013-05-15 02:28:00,
2013-05-14 19:33:00,70.9,54.4,29.93,WSW,249,4.0,7.0,56,0.00,,,0.00,12,Wunderground v.1.15,2013-05-15 02:33:00,
2013-05-14 19:38:00,70.2,54.7,29.94,NNW,336,4.0,7.0,58,0.00,,,0.00,9,Wunderground v.1.15,2013-05-15 02:38:00,
2013-05-14 19:44:00,69.7,55.2,29.94,SW,219,3.0,10.0,60,0.00,,,0.00,5,Wunderground v.1.15,2013-05-15 02:44:00,
2013-05-14 19:49:00,69.2,54.7,29.94,WSW,237,2.0,10.0,60,0.00,,,0.00,0,Wunderground v.1.15,2013-05-15 02:49:00,
2013-05-14 19:55:00,68.7,54.3,29.94,SSW,205,3.0,5.0,60,0.00,,,0.00,0,Wunderground v.1.15,2013-05-15 02:55:00,
2013-05-14 20:00:00,68.4,54.0,29.94,WSW,251,3.0,3.0,60,0.00,,,0.00,0,Wunderground v.1.15,2013-05-15 03:00:00,
2013-05-14 20:06:00,67.8,53.4,29.95,SW,227,3.0,8.0,60,0.00,,,0.00,0,Wunderground v.1.15,2013-05-15 03:06:00,
2013-05-14 20:11:00,67.2,53.3,29.95,SSW,209,4.0,5.0,61,0.00,,,0.00,0,Wunderground v.1.15,2013-05-15 03:11:00,
2013-05-14 20:16:00,66.8,53.4,29.95,SE,134,3.0,5.0,62,0.00,,,0.00,0,Wunderground v.1.15,2013-05-15 03:16:00,
2013-05-14 20:22:00,66.5,53.5,29.95,SE,136,1.0,2.0,63,0.00,,,0.00,0,Wunderground v.1.15,2013-05-15 03:22:00,
2013-05-14 20:27:00,66.2,53.2,29.95,ESE,122,1.0,3.0,63,0.00,,,0.00,0,Wunderground v.1.15,2013-05-15 03:27:00,
2013-05-14 20:33:00,65.8,53.3,29.95,SE,128,1.0,2.0,64,0.00,,,0.00,0,Wunderground v.1.15,2013-05-15 03:33:00,
2013-05-14 20:39:00,65.3,53.6,29.96,WSW,246,2.0,6.0,66,0.00,,,0.00,0,Wunderground v.1.15,2013-05-15 03:39:00,
2013-05-14 20:45:00,65.4,53.7,29.96,SSW,198,1.0,10.0,66,0.00,,,0.00,0,Wunderground v.1.15,2013-05-15 03:45:00,
2013-05-14 20:50:00,65.3,53.2,29.96,SSE,148,0.0,1.0,65,0.00,,,0.00,0,Wunderground v.1.15,2013-05-15 03:50:00,
2013-05-14 20:56:00,65.0,53.4,29.96,SSE,151,0.0,1.0,66,0.00,,,0.00,0,Wunderground v.1.15,2013-05-15 03:56:00,
2013-05-14 21:01:00,65.2,53.6,29.96,SSE,152,0.0,0.0,66,0.00,,,0.00,0,Wunderground v.1.15,2013-05-15 04:01:00,
2013-05-14 21:02:00,65.2,53.6,29.96,SSE,152,0.0,0.0,66,0.00,,,0.00,0,Wunderground v.1.15,2013-05-15 04:02:00,
2013-05-14 21:03:00,65.1,53.5,29.96,SSE,152,0.0,0.0,66,0.00,,,0.00,0,Wunderground v.1.15,2013-05-15 04:03:00,
2013-05-14 21:04:00,65.1,53.0,29.96,SSE,152,0.0,0.0,65,0.00,,,0.00,0,Wunderground v.1.15,2013-05-15 04:04:00,
2013-05-14 21:06:00,64.9,53.3,29.96,SSE,159,0.0,0.0,66,0.00,,,0.00,0,Wunderground v.1.15,2013-05-15 04:06:00,
2013-05-14 21:11:00,64.5,53.3,29.96,SSW,192,0.0,0.0,67,0.00,,,0.00,0,Wunderground v.1.15,2013-05-15 04:11:00,
2013-05-14 21:17:00,63.8,53.4,29.97,SE,129,1.0,3.0,69,0.00,,,0.00,0,Wunderground v.1.15,2013-05-15 04:17:00,
2013-05-14 21:22:00,63.8,54.2,29.97,WSW,237,1.0,2.0,71,0.00,,,0.00,0,Wunderground v.1.15,2013-05-15 04:22:00,
2013-05-14 21:27:00,64.2,54.2,29.97,SSW,198,1.0,2.0,70,0.00,,,0.00,0,Wunderground v.1.15,2013-05-15 04:27:00,
2013-05-14 21:33:00,64.0,54.0,29.98,SW,229,0.0,1.0,70,0.00,,,0.00,0,Wunderground v.1.15,2013-05-15 04:33:00,
2013-05-14 21:38:00,63.5,53.9,29.98,SSE,153,0.0,2.0,71,0.00,,,0.00,0,Wunderground v.1.15,2013-05-15 04:38:00,
2013-05-14 21:43:00,63.3,53.7,29.98,South,190,0.0,3.0,71,0.00,,,0.00,0,Wunderground v.1.15,2013-05-15 04:43:00,
2013-05-14 21:49:00,63.3,54.1,29.98,SSW,198,0.0,3.0,72,0.00,,,0.00,0,Wunderground v.1.15,2013-05-15 04:49:00,
2013-05-14 21:54:00,63.0,54.2,29.98,South,182,0.0,3.0,73,0.00,,,0.00,0,Wunderground v.1.15,2013-05-15 04:54:00,
2013-05-14 21:59:00,62.4,53.6,29.98,West,278,1.0,3.0,73,0.00,,,0.00,0,Wunderground v.1.15,2013-05-15 04:59:00,
2013-05-14 22:05:00,62.0,52.9,29.98,SSW,203,0.0,1.0,72,0.00,,,0.00,0,Wunderground v.1.15,2013-05-15 05:05:00,
2013-05-14 22:10:00,61.3,52.9,29.99,SSW,200,0.0,0.0,74,0.00,,,0.00,0,Wunderground v.1.15,2013-05-15 05:10:00,
2013-05-14 22:16:00,61.0,52.3,29.99,SSW,195,0.0,0.0,73,0.00,,,0.00,0,Wunderground v.1.15,2013-05-15 05:16:00,
2013-05-14 22:21:00,59.7,51.4,29.99,SE,130,0.0,2.0,74,0.00,,,0.00,0,Wunderground v.1.15,2013-05-15 05:21:00,
2013-05-14 22:27:00,59.1,51.9,29.99,ESE,122,1.0,3.0,77,0.00,,,0.00,0,Wunderground v.1.15,2013-05-15 05:27:00,
2013-05-14 22:32:00,59.0,52.1,29.99,SE,130,2.0,2.0,78,0.00,,,0.00,0,Wunderground v.1.15,2013-05-15 05:32:00,
2013-05-14 22:37:00,59.1,51.9,29.99,ESE,123,1.0,2.0,77,0.00,,,0.00,0,Wunderground v.1.15,2013-05-15 05:37:00,
2013-05-14 22:43:00,58.4,51.6,29.99,SE,136,1.0,3.0,78,0.00,,,0.00,0,Wunderground v.1.15,2013-05-15 05:43:00,
2013-05-14 22:48:00,58.1,51.6,29.99,ESE,121,2.0,3.0,79,0.00,,,0.00,0,Wunderground v.1.15,2013-05-15 05:48:00,
2013-05-14 22:54:00,58.0,51.2,29.99,ESE,121,1.0,2.0,78,0.00,,,0.00,0,Wunderground v.1.15,2013-05-15 05:54:00,
2013-05-14 22:59:00,57.7,51.2,29.99,SE,124,1.0,2.0,79,0.00,,,0.00,0,Wunderground v.1.15,2013-05-15 05:59:00,
2013-05-14 23:04:00,57.6,51.1,29.99,ESE,121,1.0,2.0,79,0.00,,,0.00,0,Wunderground v.1.15,2013-05-15 06:04:00,
2013-05-14 23:10:00,57.5,51.4,29.99,ESE,120,1.0,1.0,80,0.00,,,0.00,0,Wunderground v.1.15,2013-05-15 06:10:00,
2013-05-14 23:15:00,57.1,51.0,29.99,ESE,116,2.0,3.0,80,0.00,,,0.00,0,Wunderground v.1.15,2013-05-15 06:15:00,
2013-05-14 23:20:00,57.2,51.4,29.99,ESE,119,1.0,1.0,81,0.00,,,0.00,0,Wunderground v.1.15,2013-05-15 06:20:00,
2013-05-14 23:26:00,57.2,51.1,30.00,ESE,122,0.0,1.0,80,0.00,,,0.00,0,Wunderground v.1.15,2013-05-15 06:26:00,
2013-05-14 23:32:00,57.1,51.0,30.00,ESE,122,0.0,2.0,80,0.00,,,0.00,0,Wunderground v.1.15,2013-05-15 06:32:00,
2013-05-14 23:37:00,57.0,50.9,30.00,ESE,122,0.0,2.0,80,0.00,,,0.00,0,Wunderground v.1.15,2013-05-15 06:37:00,
2013-05-14 23:42:00,56.9,50.8,30.00,SE,125,0.0,3.0,80,0.00,,,0.00,0,Wunderground v.1.15,2013-05-15 06:42:00,
2013-05-14 23:48:00,56.7,50.9,30.00,SE,127,0.0,3.0,81,0.00,,,0.00,0,Wunderground v.1.15,2013-05-15 06:48:00,
2013-05-14 23:53:00,56.4,51.0,30.00,ESE,119,1.0,1.0,82,0.00,,,0.00,0,Wunderground v.1.15,2013-05-15 06:53:00,
2013-05-14 23:59:00,56.3,50.9,30.00,ESE,117,0.0,2.0,82,0.00,,,0.00,0,Wunderground v.1.15,2013-05-15 06:59:00,